Terminal Aerodrome Forecast
Issued by NWS Boston, MA

Current Version | Previous Version | Text Only | Print | Product List | Glossary On
Versions: 1 2 3 4 5 6 7 8 9 10 11 12 13 14 15 16 17 18 19 20 21 22 23 24 25 26 27 28 29 30 31 32 33 34 35 36 37 38 39 40 41 42 43 44 45 46 47 48 49 50
808 FTUS41 KBOX 251128 TAFPVD TAF KPVD 251128Z 2512/2612 20004KT P6SM FEW110 FEW160 SCT210 FM251500 21007KT P6SM SCT140 FM251800 19010G18KT P6SM BKN060 FM252100 21007KT P6SM VCTS BKN080CB FM260200 22005KT P6SM OVC120 FM260700 25004KT 3SM BR SCT250 FM261000 27005KT P6SM FEW050=

USA.gov is the U.S. government's official web portal to all federal, state and local government web resources and services.